Flag Weather past 2 weeks in Durrës, Albania

Now
52 °F

Fog.


Feels Like: 51 °F
Forecast: 57 / 67 °F
Wind: 5 mph from South

Location: Tirana Airport

Current Time: Nov 27, 2014 at 6:18:48 PM

Latest Report: Nov 27, 2014 at 5:50 PM


Visibility: 0 mi

Pressure: 30.01 "Hg

Humidity: 94%

Dew point: 50 °F

Location of DurrësLocation

Historic Weather in Durrës — Graph

°F

Durrës temperature yesterday

Maximum temperature yesterday: 55 °F (at 2:20 PM)
Minimum temperature yesterday: 48 °F (at 12:20 AM)
Average temperature yesterday: 51 °F

Past Weeks' High & Low Weather Summary

 TemperatureHumidityPressure
High70 °F (Nov 14, 1:20 PM)100% (Nov 20, 6:20 AM)30.30 "Hg (Nov 20, 6:20 AM)
Low34 °F (Nov 21, 5:50 AM)34% (Nov 22, 2:20 PM)29.74 "Hg (Nov 13, 11:50 AM)
Average53 °F79%30.04 "Hg
* Reported Nov 12 5:20 PM — Nov 27 5:20 PM, Durrës, Weather by CustomWeather, © 2014

Note: Actual official high and low records may vary slightly from our data, if they occured in-between our weather recording intervals... More about our weather records

Advertising

Durrës weather history for previous 24 hours

 ConditionsComfort  
Time TempWeatherWind HumidityBarometerVisibility
5:20 PM
Nov 27
54 °FFog.No wind94%29.98 "Hg1 mi
4:20 PM55 °FFog.No wind94%29.98 "Hg2 mi
3:50 PM55 °FFog.2 mph94%29.98 "Hg3 mi
3:20 PM55 °FFog.3 mph94%29.98 "Hg3 mi
2:50 PM57 °FPartly sunny.No wind88%29.98 "Hg4 mi
2:20 PM57 °FPartly sunny.2 mph88%29.98 "Hg5 mi
1:50 PM57 °FBroken clouds.No wind88%29.98 "Hg5 mi
1:20 PM57 °FPartly sunny.2 mph88%29.98 "Hg4 mi
12:50 PM55 °FFog.3 mph94%29.98 "Hg2 mi
12:20 PM55 °FFog.2 mph94%30.01 "Hg2 mi
11:50 AM55 °FFog.2 mph88%30.01 "Hg2 mi
11:20 AM54 °FFog.3 mph94%30.01 "Hg1 mi
10:50 AM55 °FFog.3 mph94%30.01 "Hg2 mi
10:20 AM55 °FFog.5 mph88%30.01 "Hg1 mi
9:20 AM54 °FLight rain. Fog.5 mph94%30.04 "Hg1 mi
8:50 AM54 °FDrizzle. More clouds than sun.2 mph94%30.04 "Hg2 mi
8:20 AM52 °FFog.2 mph94%30.01 "Hg1 mi
7:50 AM52 °FFog.2 mph94%30.01 "Hg1 mi
7:20 AM52 °FLight rain. Fog.2 mph94%30.01 "Hg1 mi
6:50 AM52 °FLight rain. Fog.3 mph94%30.01 "Hg1 mi
6:20 AM52 °FLight rain. Fog.5 mph94%30.01 "Hg1 mi
5:50 AM52 °FLight rain. Fog.2 mph94%30.01 "Hg1 mi
5:20 AM52 °FLight rain. Fog.2 mph88%30.01 "Hg1 mi
4:50 AM52 °FLight rain. Fog.No wind88%30.01 "Hg1 mi
4:20 AM50 °FDrizzle. Low clouds.2 mph94%30.01 "Hg1 mi
3:50 AM50 °FFog.3 mph94%30.01 "Hg1 mi
3:20 AM50 °FFog.3 mph94%30.01 "Hg1 mi
2:50 AM52 °FFog.5 mph94%30.04 "Hg1 mi
2:20 AM52 °FFog.2 mph94%30.04 "Hg1 mi
1:50 AM52 °FFog.No wind94%30.04 "Hg1 mi
1:20 AM52 °FFog.3 mph94%30.04 "Hg1 mi
12:50 AM52 °FLight rain. Fog.5 mph94%30.04 "Hg1 mi
12:20 AM52 °FFog.2 mph94%30.04 "Hg1 mi
11:50 PM
Nov 26
52 °FFog.2 mph94%30.04 "Hg1 mi
11:20 PM52 °FFog.2 mph88%30.04 "Hg1 mi
10:50 PM52 °FLight rain. Fog.No wind94%30.07 "Hg1 mi
10:20 PM52 °FDrizzle. Fog.No wind88%30.07 "Hg1 mi
9:50 PM52 °FFog.2 mph88%30.07 "Hg2 mi
9:20 PM52 °FFog.2 mph88%30.07 "Hg2 mi
8:50 PM52 °FFog.3 mph88%30.04 "Hg3 mi
8:20 PM52 °FFog.2 mph88%30.04 "Hg3 mi
7:50 PM52 °FFog.No wind88%30.04 "Hg2 mi
7:20 PM52 °FFog.2 mph88%30.04 "Hg2 mi
6:50 PM52 °FFog.No wind88%30.04 "Hg2 mi
6:20 PM52 °FFog.No wind88%30.04 "Hg3 mi
Weather by CustomWeather, © 2014

See weather overviewHow to use our weather pages